When you browse on this site, cookies collect data to enhance your experience and personalize the content and advertising you see.
Visit our Privacy Policy to learn more. By continuing to use the site, you agree to this use of cookies and data.
EN

Hourly Weather Filiasi

Today, 12 July, Sunday

Time Temperature Precipitation Wind Pressure Humidity
00:00 +21°C° 0 mm 2 mps 751 mmHg 58%
01:00 +20°C° 0 mm 2 mps 751 mmHg 62%
02:00 +20°C° 0 mm 2 mps 751 mmHg 65%
03:00 +19°C° 0 mm 2 mps 751 mmHg 67%
04:00 +20°C° 0 mm 1 mps 751 mmHg 70%
05:00 +19°C° 0 mm 1 mps 751 mmHg 73%
06:00 +20°C° 0 mm 2 mps 752 mmHg 69%
07:00 +23°C° 0 mm 2 mps 752 mmHg 65%
08:00 +24°C° 0 mm 3 mps 753 mmHg 61%
09:00 +26°C° 0 mm 4 mps 753 mmHg 56%
10:00 +28°C° 0 mm 4 mps 753 mmHg 51%
11:00 +30°C° 0 mm 5 mps 753 mmHg 47%
12:00 +30°C° 0 mm 5 mps 753 mmHg 45%
13:00 +32°C° 0 mm 5 mps 753 mmHg 43%
14:00 +33°C° 0 mm 6 mps 753 mmHg 41%
15:00 +32°C° 0 mm 6 mps 753 mmHg 43%
16:00 +30°C° 0 mm 6 mps 752 mmHg 46%
17:00 +29°C° 0 mm 7 mps 752 mmHg 48%
18:00 +27°C° 0.1 mm 6 mps 752 mmHg 54%
19:00 +23°C° 0.1 mm 5 mps 752 mmHg 60%
20:00 +21°C° 0.1 mm 4 mps 753 mmHg 66%
21:00 +20°C° 0 mm 4 mps 753 mmHg 69%
22:00 +19°C° 0 mm 3 mps 753 mmHg 71%
23:00 +17°C° 0 mm 3 mps 753 mmHg 74%

Tomorrow, 13 July, Monday

Time Temperature Precipitation Wind Pressure Humidity
00:00 +17°C° 0 mm 3 mps 753 mmHg 74%
01:00 +17°C° 0 mm 2 mps 753 mmHg 74%
02:00 +17°C° 0 mm 2 mps 753 mmHg 74%
03:00 +17°C° 0 mm 2 mps 753 mmHg 74%
04:00 +17°C° 0 mm 2 mps 753 mmHg 74%
05:00 +17°C° 0 mm 3 mps 753 mmHg 74%
06:00 +17°C° 0 mm 2 mps 753 mmHg 73%
07:00 +18°C° 0 mm 2 mps 754 mmHg 72%
08:00 +19°C° 0 mm 2 mps 754 mmHg 72%
09:00 +20°C° 0 mm 3 mps 754 mmHg 69%
10:00 +20°C° 0 mm 3 mps 754 mmHg 66%
11:00 +21°C° 0 mm 3 mps 754 mmHg 64%
12:00 +22°C° 0.1 mm 3 mps 754 mmHg 60%
13:00 +24°C° 0.1 mm 3 mps 754 mmHg 55%
14:00 +25°C° 0.1 mm 3 mps 754 mmHg 51%
15:00 +26°C° 0 mm 3 mps 753 mmHg 49%
16:00 +26°C° 0 mm 3 mps 753 mmHg 48%
17:00 +26°C° 0 mm 3 mps 752 mmHg 46%
18:00 +25°C° 0 mm 3 mps 753 mmHg 53%
19:00 +22°C° 0 mm 3 mps 753 mmHg 59%
20:00 +20°C° 0 mm 3 mps 753 mmHg 66%
21:00 +19°C° 0 mm 3 mps 753 mmHg 70%
22:00 +18°C° 0 mm 2 mps 753 mmHg 73%
23:00 +17°C° 0 mm 2 mps 753 mmHg 77%

Day after tomorrow, 14 July, Tuesday

Time Temperature Precipitation Wind Pressure Humidity
00:00 +18°C° 0 mm 1 mps 753 mmHg 76%
01:00 +18°C° 0 mm 1 mps 753 mmHg 76%
02:00 +18°C° 0 mm 1 mps 753 mmHg 76%
03:00 +18°C° 0 mm 1 mps 753 mmHg 76%
04:00 +17°C° 0 mm 2 mps 753 mmHg 76%
05:00 +17°C° 0 mm 2 mps 753 mmHg 76%
06:00 +18°C° 0 mm 2 mps 753 mmHg 71%
07:00 +19°C° 0 mm 2 mps 753 mmHg 67%
08:00 +20°C° 0 mm 2 mps 753 mmHg 63%
09:00 +21°C° 0 mm 2 mps 753 mmHg 57%
10:00 +24°C° 0 mm 3 mps 753 mmHg 51%
11:00 +25°C° 0 mm 3 mps 752 mmHg 45%
12:00 +26°C° 0 mm 2 mps 752 mmHg 42%
13:00 +27°C° 0 mm 2 mps 752 mmHg 39%
14:00 +28°C° 0 mm 2 mps 752 mmHg 36%
15:00 +28°C° 0 mm 1 mps 752 mmHg 36%
16:00 +28°C° 0 mm 1 mps 751 mmHg 35%
17:00 +28°C° 0 mm 1 mps 751 mmHg 35%
18:00 +27°C° 0 mm 1 mps 751 mmHg 40%
19:00 +25°C° 0 mm 1 mps 751 mmHg 44%
20:00 +23°C° 0 mm 1 mps 751 mmHg 49%
21:00 +22°C° 0 mm 1 mps 752 mmHg 52%
22:00 +21°C° 0 mm 1 mps 752 mmHg 56%
23:00 +20°C° 0 mm 1 mps 752 mmHg 60%

15 July, Wednesday

Time Temperature Precipitation Wind Pressure Humidity
00:00 +19°C° 0 mm 1 mps 752 mmHg 62%
01:00 +18°C° 0 mm 1 mps 752 mmHg 65%
02:00 +18°C° 0 mm 1 mps 752 mmHg 68%
03:00 +16°C° 0 mm 1 mps 752 mmHg 70%
04:00 +16°C° 0 mm 1 mps 752 mmHg 72%
05:00 +16°C° 0 mm 2 mps 752 mmHg 74%
06:00 +18°C° 0 mm 2 mps 752 mmHg 68%
07:00 +20°C° 0 mm 2 mps 752 mmHg 61%
08:00 +22°C° 0 mm 3 mps 752 mmHg 55%
09:00 +25°C° 0 mm 3 mps 752 mmHg 49%
10:00 +27°C° 0 mm 3 mps 752 mmHg 43%
11:00 +28°C° 0 mm 3 mps 752 mmHg 37%
12:00 +29°C° 0 mm 3 mps 752 mmHg 35%
13:00 +30°C° 0 mm 3 mps 752 mmHg 32%
14:00 +31°C° 0 mm 3 mps 751 mmHg 30%
15:00 +31°C° 0 mm 2 mps 751 mmHg 30%
16:00 +31°C° 0 mm 2 mps 751 mmHg 29%
17:00 +31°C° 0 mm 2 mps 750 mmHg 29%
18:00 +29°C° 0 mm 2 mps 750 mmHg 33%
19:00 +27°C° 0 mm 2 mps 750 mmHg 38%
20:00 +25°C° 0 mm 2 mps 750 mmHg 42%
21:00 +24°C° 0 mm 2 mps 750 mmHg 46%
22:00 +23°C° 0 mm 2 mps 750 mmHg 49%
23:00 +21°C° 0 mm 2 mps 751 mmHg 52%

16 July, Thursday

Time Temperature Precipitation Wind Pressure Humidity
00:00 +20°C° 0 mm 2 mps 750 mmHg 55%
01:00 +19°C° 0 mm 2 mps 750 mmHg 57%
02:00 +19°C° 0 mm 2 mps 750 mmHg 60%
03:00 +18°C° 0 mm 2 mps 750 mmHg 63%
04:00 +18°C° 0 mm 2 mps 750 mmHg 65%
05:00 +17°C° 0 mm 2 mps 750 mmHg 68%
06:00 +19°C° 0 mm 2 mps 750 mmHg 63%
07:00 +22°C° 0 mm 1 mps 750 mmHg 57%
08:00 +24°C° 0 mm 1 mps 750 mmHg 52%
09:00 +26°C° 0 mm 1 mps 750 mmHg 47%
10:00 +29°C° 0 mm 1 mps 750 mmHg 42%
11:00 +29°C° 0 mm 0 mps 749 mmHg 37%
12:00 +31°C° 0 mm 1 mps 749 mmHg 35%
13:00 +32°C° 0 mm 2 mps 749 mmHg 33%
14:00 +34°C° 0 mm 3 mps 749 mmHg 30%
15:00 +33°C° 0 mm 3 mps 748 mmHg 32%
16:00 +33°C° 0 mm 3 mps 748 mmHg 34%
17:00 +31°C° 0 mm 3 mps 748 mmHg 35%
18:00 +29°C° 0 mm 3 mps 748 mmHg 40%
19:00 +28°C° 0 mm 2 mps 748 mmHg 45%
20:00 +26°C° 0 mm 2 mps 748 mmHg 50%
21:00 +25°C° 0 mm 2 mps 748 mmHg 54%
22:00 +24°C° 0 mm 2 mps 748 mmHg 58%
23:00 +21°C° 0 mm 2 mps 748 mmHg 62%

17 July, Friday

Time Temperature Precipitation Wind Pressure Humidity
00:00 +21°C° 0 mm 2 mps 748 mmHg 65%
01:00 +20°C° 0 mm 2 mps 748 mmHg 68%
02:00 +19°C° 0 mm 2 mps 748 mmHg 71%
03:00 +19°C° 0 mm 2 mps 748 mmHg 71%
04:00 +19°C° 0 mm 2 mps 748 mmHg 71%
05:00 +20°C° 0 mm 2 mps 748 mmHg 71%
06:00 +20°C° 0 mm 2 mps 749 mmHg 68%
07:00 +21°C° 0 mm 3 mps 749 mmHg 65%
08:00 +22°C° 0 mm 4 mps 749 mmHg 62%
09:00 +22°C° 0 mm 4 mps 749 mmHg 61%
10:00 +22°C° 0 mm 4 mps 750 mmHg 60%
11:00 +22°C° 0 mm 4 mps 750 mmHg 59%
12:00 +23°C° 0 mm 4 mps 750 mmHg 53%
13:00 +26°C° 0 mm 4 mps 750 mmHg 48%
14:00 +27°C° 0 mm 3 mps 750 mmHg 42%
15:00 +28°C° 0 mm 4 mps 749 mmHg 39%
16:00 +28°C° 0 mm 4 mps 749 mmHg 36%
17:00 +29°C° 0 mm 4 mps 749 mmHg 34%
18:00 +27°C° 0 mm 4 mps 749 mmHg 39%
19:00 +25°C° 0 mm 3 mps 750 mmHg 44%
20:00 +22°C° 0 mm 3 mps 750 mmHg 50%
21:00 +21°C° 0 mm 3 mps 750 mmHg 54%
22:00 +20°C° 0 mm 3 mps 751 mmHg 59%
23:00 +18°C° 0 mm 3 mps 751 mmHg 64%
Show more